This demonstration page uses our WeatherBlox Daily Observations layout. Learn more.

Left ArrowRight Arrow

39.51506, -84.39828

Hourly Observations for February 14, 2021

Temp ( °F °C ) Dew Point ( °F °C ) Humidity (%) Winds ( mph kmh ) Pressure ( in mb ) Visibility ( mi km ) Precip ( " mm )
12:15 am 00:15 Cloudy 24 -4.5 18 -7.6 79 79 N 3 6 30.29 1026 10 16 0.00 0.00
12:35 am 00:35 Cloudy 24 -4.6 19 -7.5 80 80 N 6 9 30.29 1026 10 16 0.00 0.00
12:55 am 00:55 Cloudy 24 -4.7 19 -7.2 83 83 NNW 5 7 30.30 1026 10 16 0.00 0.00
1:15 am 01:15 Cloudy 23 -5 19 -7.2 85 85 NNW 8 13 30.30 1026 10 16 0.00 0.00
1:35 am 01:35 Cloudy 23 -5 19 -7.2 85 85 N 3 6 30.30 1026 10 16 0.00 0.00
1:55 am 01:55 Cloudy 23 -5.2 19 -7.4 85 85 N 6 9 30.31 1026 10 16 0.00 0.00
2:15 am 02:15 Cloudy 23 -5.1 19 -7.3 85 85 N 5 7 30.31 1026 10 16 0.00 0.00
2:35 am 02:35 Cloudy 23 -5 19 -7.3 84 84 N 5 7 30.32 1027 10 16 0.00 0.00
2:55 am 02:55 Cloudy 23 -5 19 -7.4 83 83 N 6 9 30.32 1027 10 16 0.00 0.00
3:15 am 03:15 Cloudy 23 -5 19 -7.5 83 83 N 6 9 30.33 1027 10 16 0.00 0.00
3:35 am 03:35 Cloudy 23 -5.1 19 -7.5 83 83 N 6 9 30.32 1027 10 16 0.00 0.00
3:55 am 03:55 Cloudy 23 -5.1 19 -7.5 83 83 N 3 6 30.32 1027 10 16 0.00 0.00
4:15 am 04:15 Cloudy 23 -5.2 19 -7.5 84 84 N 5 7 30.33 1027 10 16 0.00 0.00
4:35 am 04:35 Cloudy 22 -5.3 18 -7.7 83 83 N 6 9 30.33 1027 10 16 0.00 0.00
4:55 am 04:55 Cloudy 22 -5.4 18 -7.7 84 84 N 5 7 30.34 1027 10 16 0.00 0.00
5:15 am 05:15 Cloudy 22 -5.3 18 -7.8 83 83 N 7 11 30.35 1028 10 16 0.00 0.00
5:35 am 05:35 Cloudy with Light Snow 22 -5.3 18 -7.7 83 83 N 6 9 30.36 1028 10 16 0.00 0.00
5:55 am 05:55 Cloudy with Light Snow 22 -5.4 18 -7.7 84 84 N 9 15 30.37 1028 10 16 0.00 0.00
6:15 am 06:15 Cloudy 22 -5.4 17 -8.1 82 82 N 9 15 30.37 1028 10 16 0.00 0.00
6:35 am 06:35 Cloudy with Light Snow 22 -5.6 17 -8.2 82 82 N 9 15 30.37 1028 10 16 0.00 0.00
6:55 am 06:55 Cloudy with Light Snow 22 -5.8 18 -8 85 85 N 8 13 30.37 1029 7 11 0.00 0.00
7:15 am 07:15 Cloudy with Light Snow 21 -6 18 -7.9 87 87 NNW 6 9 30.37 1029 7 11 0.00 0.00
7:35 am 07:35 Cloudy with Light Snow 20 -6.5 16 -8.8 84 84 N 8 13 30.38 1029 10 16 0.00 0.00
7:55 am 07:55 Cloudy with Light Snow 20 -6.6 16 -9 83 83 N 9 15 30.39 1029 10 16 0.00 0.00
8:15 am 08:15 Cloudy with Light Snow 20 -6.8 16 -9.1 84 84 N 7 11 30.39 1029 7 11 0.00 0.00
8:35 am 08:35 Cloudy with Light Snow 20 -6.8 16 -9.1 84 84 N 8 13 30.39 1029 5 8 0.00 0.00
8:55 am 08:55 Cloudy with Light Snow 20 -6.8 15 -9.3 83 83 N 8 13 30.41 1030 10 16 0.00 0.00
9:15 am 09:15 Cloudy with Light Snow 20 -6.8 15 -9.5 81 81 N 9 15 30.42 1030 10 16 0.00 0.00
9:35 am 09:35 Cloudy 20 -6.7 15 -9.6 80 80 N 8 13 30.41 1030 10 16 0.00 0.00
9:55 am 09:55 Sunny 21 -6.3 15 -9.6 78 78 NNE 8 13 30.41 1030 10 16 0.00 0.00
10:15 am 10:15 Sunny 22 -5.7 15 -9.4 75 75 NNE 9 15 30.40 1030 10 16 0.00 0.00
10:35 am 10:35 Partly Cloudy 22 -5.5 15 -9.4 74 74 NNE 10 17 30.39 1029 10 16 0.00 0.00
10:55 am 10:55 Partly Cloudy 23 -5 15 -9.2 73 73 NE 9 15 30.39 1029 10 16 0.00 0.00
11:15 am 11:15 Cloudy 23 -4.9 15 -9.2 72 72 N 9 15 30.39 1029 10 16 0.00 0.00
11:35 am 11:35 Cloudy 22 -5.4 15 -9.3 74 74 NNW 9 15 30.39 1029 10 16 0.00 0.00
11:55 am 11:55 Cloudy 23 -5 16 -9 74 74 NNW 8 13 30.39 1029 10 16 0.00 0.00
12:15 pm 12:15 Cloudy 24 -4.7 16 -8.9 73 73 N 9 15 30.39 1029 10 16 0.00 0.00
12:35 pm 12:35 Cloudy 23 -4.8 16 -9 73 73 NNW 13 20 30.38 1029 10 16 0.00 0.00
12:55 pm 12:55 Cloudy 23 -5 16 -8.9 74 74 N 9 15 30.35 1028 10 16 0.00 0.00
1:15 pm 13:15 Cloudy 24 -4.7 17 -8.6 74 74 NE 10 17 30.34 1027 10 16 0.00 0.00
1:35 pm 13:35 Cloudy 24 -4.6 16 -8.7 73 73 N 9 15 30.35 1028 10 16 0.00 0.00
1:55 pm 13:55 Cloudy 24 -4.7 16 -8.9 73 73 NNE 8 13 30.35 1028 10 16 0.00 0.00
2:15 pm 14:15 Cloudy 24 -4.6 16 -8.8 73 73 N 8 13 30.37 1028 10 16 0.00 0.00
2:35 pm 14:35 Cloudy 24 -4.6 16 -8.8 73 73 NNW 7 11 30.37 1028 10 16 0.00 0.00
2:55 pm 14:55 Cloudy 24 -4.4 16 -8.7 72 72 NNE 8 13 30.35 1028 10 16 0.00 0.00
3:15 pm 15:15 Cloudy 24 -4.5 16 -8.9 72 72 N 12 19 30.35 1028 10 16 0.00 0.00
3:35 pm 15:35 Cloudy 24 -4.5 16 -8.9 72 72 N 10 17 30.34 1027 10 16 0.00 0.00
3:55 pm 15:55 Cloudy 24 -4.6 16 -9 72 72 N 8 13 30.36 1028 10 16 0.00 0.00
4:15 pm 16:15 Cloudy 24 -4.6 16 -9 72 72 NNW 10 17 30.36 1028 10 16 0.00 0.00
4:35 pm 16:35 Cloudy 23 -4.8 16 -8.9 73 73 N 12 19 30.35 1028 10 16 0.00 0.00
4:55 pm 16:55 Cloudy 23 -4.8 16 -9.1 72 72 NNW 12 19 30.35 1028 10 16 0.00 0.00
5:15 pm 17:15 Cloudy 23 -4.8 15 -9.3 71 71 N 13 20 30.35 1028 10 16 0.00 0.00
5:35 pm 17:35 Mostly Cloudy 23 -4.8 15 -9.2 72 72 N 13 20 30.35 1028 10 16 0.00 0.00
5:55 pm 17:55 Partly Cloudy 23 -5.2 15 -9.4 73 73 N 9 15 30.34 1027 10 16 0.00 0.00
6:15 pm 18:15 Clear 22 -5.4 15 -9.6 73 73 N 8 13 30.34 1027 10 16 0.00 0.00
6:35 pm 18:35 Clear 22 -5.7 14 -9.9 73 73 NNE 10 17 30.34 1027 10 16 0.00 0.00
6:55 pm 18:55 Clear 21 -5.9 14 -9.9 74 74 N 7 11 30.35 1028 10 16 0.00 0.00
7:15 pm 19:15 Partly Cloudy 21 -6.2 14 -10 75 75 N 10 17 30.36 1028 10 16 0.00 0.00
7:35 pm 19:35 Cloudy 21 -6.2 14 -10.1 74 74 N 8 13 30.38 1029 10 16 0.00 0.00
7:55 pm 19:55 Cloudy 21 -6.3 14 -10.1 75 75 N 8 13 30.37 1029 10 16 0.00 0.00
8:15 pm 20:15 Cloudy 21 -6.3 14 -10.1 75 75 N 9 15 30.36 1028 10 16 0.00 0.00
8:35 pm 20:35 Cloudy 20 -6.5 14 -10.2 75 75 N 9 15 30.36 1028 10 16 0.00 0.00
8:55 pm 20:55 Cloudy 20 -6.6 13 -10.4 75 75 N 12 19 30.35 1028 10 16 0.00 0.00
9:15 pm 21:15 Cloudy 20 -6.8 13 -10.5 75 75 N 13 20 30.34 1028 10 16 0.00 0.00
9:35 pm 21:35 Cloudy 20 -6.8 13 -10.5 75 75 N 10 17 30.36 1028 10 16 0.00 0.00
9:55 pm 21:55 Cloudy 20 -6.8 13 -10.5 75 75 NNE 12 19 30.36 1028 10 16 0.00 0.00
10:15 pm 22:15 Cloudy 20 -6.8 13 -10.5 75 75 NNE 9 15 30.36 1028 10 16 0.00 0.00
10:35 pm 22:35 Cloudy 20 -6.8 13 -10.5 75 75 NNE 10 17 30.36 1028 10 16 0.00 0.00
10:55 pm 22:55 Cloudy 20 -6.8 13 -10.8 73 73 NNE 10 17 30.35 1028 10 16 0.00 0.00
11:15 pm 23:15 Cloudy 20 -6.8 12 -10.9 73 73 NNE 13 20 30.34 1028 10 16 0.00 0.00
11:35 pm 23:35 Cloudy 20 -6.9 12 -11 73 73 NNE 12 19 30.33 1027 10 16 0.00 0.00
11:55 pm 23:55 Cloudy 20 -6.8 12 -10.9 73 73 NE 10 17 30.32 1027 10 16 0.00 0.00

Powered by AerisWeather